FLOCK 2E'-4

Last updated on Thu Nov 09 2017 00:15:05 GMT+0000 (Coordinated Universal Time)

1 41482U 98067JC 17312.53569607 .16219661 12308-4 20197-2 0 9995 2 41482 51.6140 345.8340 0002361 349.1392 10.9692 16.35310899 84697

Satellite not in orbit